SBIRS GEO-6 (USA 336)

Last updated on Thu Nov 21 2024 00:02:44 GMT+0000 (Coordinated Universal Time)

1 53355U 22092A 24325.57777826 -.00000294 00000+0 00000+0 0 9995 2 53355 4.3314 311.7039 0002423 298.7002 156.6921 1.00271480 8484
UTC large
Height (km)
Speed (km/s)
/
Latitude / Longitude
Inclination (degrees)
Orbital Period (minutes)
Azimuth
Elevation
Range (km)
Doppler Factor

Next 0 passes for location: London (51.5072 / 0.1276)

Sorry there are no passes over London.